SCP
1 0 0 0 0 0 0 0 1 1 2 2 2 2 2 1 1 0 0 0 0 1 1 1 1 1 1 1 1 1 1 1 1 1 1 1 1 1 1 1 1 1 1
1 0 0 0 0 0 0 0 1 1 1 1 1 1 1 1 1 0 0 0 0 0 1 1 1 1 1 1 1 1 1 1 1 1 1 1 1 1 1 1 1 1 1
1 1 0 0 0 0 0 0 0 1 1 1 1 1 1 1 0 0 0 0 0 0 0 1 1 1 1 1 1 1 1 1 1 1 1 1 1 1 1 1 1 1 1
1 1 0 0 0 0 0 0 0 0 0 0 0 0 0 0 0 0 0 0 0 0 0 1 1 1 1 1 1 1 1 1 1 1 1 1 1 1 1 1 1 1 1
1 1 1 0 0 0 0 0 0 0 0 0 0 0 0 0 0 0 0 0 0 0 0 0 1 1 1 1 1 1 1 1 1 1 1 1 1 1 1 1 1 1 1
1 1 1 0 0 0 0 0 0 0 0 0 0 0 0 0 0 0 0 0 0 0 0 0 0 0 1 1 1 1 1 1 1 1 1 1 1 1 1 1 1 1 1
1 1 1 0 0 0 0 0 0 0 0 0 0 0 0 0 0 0 0 0 0 0 0 0 0 0 1 1 1 1 1 1 1 1 1 1 1 1 1 1 1 1 1
0 1 1 0 0 0 0 0 0 0 0 0 0 0 0 0 0 0 0 0 0 0 0 0 0 0 1 1 1 1 1 1 1 1 1 1 0 0 1 1 1 1 1
0 0 0 0 0 0 0 0 0 0 0 0 0 0 0 0 0 0 0 0 0 0 0 0 0 0 0 1 1 0 0 1 1 1 1 1 0 0 0 1 1 1 1
0 0 0 0 0 0 0 0 0 0 0 0 0 0 0 0 0 0 0 0 0 0 0 0 0 0 0 0 0 0 0 0 0 1 1 1 1 0 0 0 1 1 1
0 0 0 0 0 0 0 0 0 0 0 0 0 0 0 0 0 0 0 0 0 0 0 0 0 0 0 0 0 0 0 0 0 0 1 1 1 0 0 0 1 1 0
0 0 0 0 0 0 0 0 0 0 0 0 0 0 0 0 0 0 0 0 0 0 0 0 0 0 0 0 0 0 0 0 0 0 1 1 1 0 0 0 0 0 0
0 0 0 0 0 0 0 0 0 0 0 0 0 0 0 0 0 0 0 0 0 0 0 0 0 0 0 0 0 0 0 0 0 0 1 1 1 0 0 0 0 0 0
0 0 0 0 0 0 0 0 0 0 0 0 0 0 0 0 0 0 0 0 0 0 0 0 0 0 0 0 0 0 0 0 0 0 0 0 0 0 0 0 0 0 0
0 0 0 0 0 0 0 0 0 0 0 0 0 0 0 0 0 0 0 0 0 0 0 0 0 0 0 0 0 0 0 0 0 0 0 0 0 0 0 0 0 0 0
0 0 0 0 0 0 0 0 0 0 0 0 0 0 0 0 0 0 0 0 0 0 0 0 0 0 0 0 0 0 0 0 0 0 0 0 0 0 0 0 0 0 0
0 0 0 0 0 0 0 0 0 0 0 0 0 0 0 0 0 0 0 0 0 0 0 0 0 0 0 0 0 0 0 0 0 0 0 0 0 0 0 0 0 0 0
0 0 0 0 0 0 0 0 0 0 0 0 0 0 0 0 0 0 0 0 0 0 0 0 0 0 0 0 0 0 0 0 0 0 0 0 0 0 0 0 0 0 0
0 0 0 0 0 0 0 0 0 0 0 0 0 0 0 0 0 0 0 0 0 0 0 0 0 0 0 0 0 0 0 0 0 0 0 0 0 0 0 0 0 0 0
0 0 0 0 0 0 0 0 0 0 0 0 0 0 0 0 0 0 0 0 0 0 0 0 0 0 0 0 0 0 0 0 0 0 0 0 0 0 0 0 0 0 0
0 0 0 0 0 0 0 0 0 0 0 0 0 0 0 0 0 0 0 0 0 0 0 0 0 0 0 0 0 0 0 0 0 0 0 0 0 0 0 0 0 0 0
0 0 0 0 0 0 0 0 0 0 0 0 0 0 0 0 0 0 0 0 0 0 0 0 0 0 0 0 0 0 0 0 0 0 0 0 0 0 0 0 0 0 0
0 0 0 0 0 0 0 0 0 0 0 0 0 0 0 0 0 0 0 0 0 0 0 0 0 0 0 0 0 0 0 0 0 0 0 0 0 0 0 0 0 0 0
0 0 0 0 0 0 0 0 0 0 0 0 0 0 0 0 0 0 0 0 0 0 0 0 0 0 0 0 0 0 0 0 0 0 0 0 0 0 0 0 0 0 0
0 0 0 0 0 0 0 0 0 0 0 0 0 0 0 0 0 0 0 0 0 0 0 0 0 0 0 0 0 0 0 0 0 0 0 0 0 0 0 0 0 0 0
0 0 0 0 0 0 0 0 0 0 0 0 0 0 0 0 0 0 0 0 0 0 0 0 0 0 0 0 0 0 0 0 0 0 0 0 0 0 0 0 0 0 0
Wind_Speed
2 2 2 2 2 1 2 2 1 2 2 2 2 2 1 1 1 1 1 3 4 3 2 1 1 2 2 1 1 1 1 1 1 2 3 3 3 4 4 5 5 6 6
2 2 2 2 1 1 1 1 1 2 2 2 2 2 1 1 1 1 1 2 5 5 4 3 3 3 3 2 3 3 3 3 3 3 3 4 4 4 4 5 5 5 5
3 3 2 2 1 1 2 2 2 2 2 2 2 2 2 2 2 2 2 1 2 4 5 5 5 5 5 4 3 4 4 4 4 4 4 4 5 5 5 5 5 6 6
3 3 2 1 1 1 1 2 1 2 2 2 2 2 2 2 2 2 2 2 2 2 4 7 7 7 6 6 4 4 4 4 4 4 5 5 5 5 5 6 6 6 7
3 3 2 1 1 2 1 1 1 1 2 2 2 2 2 2 2 3 3 3 3 3 2 5 7 7 7 7 6 5 5 5 5 5 5 5 5 6 6 6 6 7 8
3 3 2 2 2 2 2 2 2 2 2 1 2 3 2 2 2 3 3 3 3 3 3 3 3 5 7 7 7 6 6 6 6 6 6 6 6 6 7 7 7 8 8
3 3 2 2 2 2 1 2 2 2 2 1 2 2 2 2 3 3 2 2 3 3 3 3 2 2 3 6 7 7 7 7 7 7 6 6 6 7 7 8 8 8 8
3 2 2 2 2 2 2 2 2 2 1 2 2 2 1 2 2 3 2 2 3 2 3 3 3 3 2 2 4 7 7 8 8 8 7 7 8 8 8 8 8 8 8
2 3 2 2 2 2 1 1 2 2 1 1 1 2 2 1 1 2 2 2 2 2 2 2 3 3 2 2 2 5 7 8 8 9 8 8 8 8 8 8 8 8 8
2 3 2 2 2 2 2 1 2 2 2 1 1 2 1 2 2 1 2 2 2 2 2 3 3 3 2 2 3 5 7 8 8 9 9 9 9 9 9 9 9 8 7
1 2 2 2 2 2 2 2 2 2 2 2 1 1 1 1 1 2 2 2 2 1 1 2 2 2 2 2 2 4 7 7 8 9 9 9 9 10 10 9 8 8 7
1 1 2 1 2 2 2 2 2 2 1 2 1 1 1 1 1 1 2 2 2 2 2 1 1 2 2 2 3 6 6 7 9 9 9 10 10 10 10 10 9 8 8
1 1 1 1 1 1 2 2 2 2 2 2 1 1 1 1 1 1 1 1 2 2 2 1 1 1 1 2 3 6 6 8 9 9 10 10 10 10 9 9 9 9 8
2 2 2 1 1 1 2 2 2 1 1 2 1 1 1 1 1 1 2 1 2 2 2 2 1 1 1 2 3 6 4 8 9 9 9 9 9 9 9 9 9 9 8
2 2 2 2 2 2 2 2 1 1 1 1 1 1 1 1 1 1 1 2 2 2 3 2 2 1 1 1 4 3 3 7 9 9 9 9 9 9 9 9 9 9 9
2 3 2 3 2 2 2 2 2 1 1 1 1 2 2 2 1 1 2 2 2 3 4 2 2 2 3 3 5 3 3 8 8 9 9 9 9 9 9 9 9 9 9
3 3 3 3 3 2 2 2 2 2 2 2 2 2 3 2 2 2 2 2 2 3 5 4 2 2 3 3 4 3 3 3 4 8 9 9 9 9 9 8 8 8 9
3 3 3 3 3 3 3 3 3 3 3 3 3 3 3 2 3 2 2 3 3 3 4 5 4 3 3 3 3 3 4 3 3 7 9 8 9 9 9 8 8 8 8
3 3 3 4 4 3 3 4 4 4 4 4 4 4 4 3 4 3 3 3 3 3 4 4 4 3 2 2 2 3 4 3 4 5 7 8 8 9 9 8 8 9 9
3 3 3 3 3 3 4 4 4 4 4 4 4 5 5 5 5 5 4 4 4 4 3 4 4 3 3 2 2 2 3 3 3 3 5 6 8 9 9 9 9 9 9
3 3 3 3 3 3 4 4 4 4 4 4 4 5 5 7 8 7 5 5 4 4 3 4 4 3 3 2 2 2 4 4 4 2 3 4 4 4 5 7 9 9 10
3 3 3 3 4 4 6 7 5 4 4 5 5 5 5 6 8 10 11 9 8 5 5 4 4 5 5 4 3 3 3 3 4 2 2 4 2 4 4 4 8 11 10
3 3 3 3 4 5 7 8 8 4 4 5 5 5 5 5 6 5 8 10 9 11 10 6 6 7 5 5 4 4 4 4 5 3 2 5 3 4 4 6 11 12 11
3 3 3 4 4 6 8 8 8 5 5 5 5 6 6 6 5 5 5 5 6 6 8 6 6 6 6 5 5 5 5 4 4 3 3 5 3 4 4 4 10 11 10
3 4 3 4 5 6 8 9 8 3 4 5 5 6 6 6 9 10 6 6 6 5 7 9 9 8 8 8 6 2 2 3 5 4 3 3 3 4 4 4 5 8 9
4 4 4 5 5 6 9 9 8 3 4 4 4 5 8 9 10 10 6 6 7 6 4 4 5 6 5 6 7 5 4 4 4 4 3 2 2 2 4 3 3 3 4
Wind_Direction
106 93 79 67 58 59 64 60 62 63 62 70 71 76 60 43 35 32 10 23 22 13 10 22 30 27 24 6 345 6 41 37 23 5 0 347 327 317 313 314 302 288 283
116 108 94 74 59 58 64 73 67 78 70 66 54 47 54 48 47 44 36 23 25 21 20 16 15 17 19 22 33 42 40 23 8 350 340 337 336 334 330 320 322 313 297
116 111 103 83 65 66 69 77 65 64 65 55 48 39 41 43 49 42 41 38 24 23 29 26 18 18 17 16 29 36 36 32 19 359 346 339 331 330 328 325 320 318 313
110 105 101 89 75 80 84 92 82 73 63 52 47 35 33 33 37 44 50 47 47 39 30 34 30 24 16 9 8 15 11 10 7 357 351 346 339 330 323 316 314 311 307
99 100 95 83 79 79 69 80 71 100 83 52 47 47 33 36 35 44 53 53 52 52 39 29 27 24 18 13 7 3 356 355 356 346 342 339 334 330 324 319 314 313 309
91 91 87 73 80 87 70 76 76 65 86 73 62 50 36 34 46 44 42 43 44 45 40 33 22 12 15 14 12 5 359 354 348 342 338 332 326 322 320 318 317 313 311
84 88 90 81 77 88 94 102 93 81 60 57 69 43 25 34 47 44 33 42 41 35 37 32 23 16 360 7 9 5 359 353 347 339 332 330 329 325 319 316 313 312 313
78 92 98 101 93 91 80 81 93 92 48 40 89 91 24 0 12 22 22 35 28 21 25 22 17 12 358 355 359 6 1 354 347 339 334 332 326 319 317 316 316 316 319
86 85 88 107 102 101 108 94 106 109 110 24 55 122 138 207 315 344 8 21 18 17 6 1 10 3 358 360 346 356 358 351 341 335 332 331 329 325 327 325 324 318 314
90 92 83 99 105 99 101 93 89 117 129 136 38 41 101 149 152 314 329 347 0 3 354 357 355 352 357 355 353 355 356 350 345 340 338 333 328 327 324 320 320 322 325
99 105 96 93 109 112 111 100 92 102 125 144 134 103 75 56 110 166 269 309 330 327 329 328 333 338 343 346 334 346 352 352 348 343 340 338 335 332 329 323 321 321 324
94 107 116 112 121 124 125 125 120 118 116 116 122 140 152 156 173 172 215 269 288 291 305 309 320 319 322 333 334 348 350 350 345 339 338 337 337 334 329 325 321 319 320
187 191 158 157 146 145 140 128 118 118 128 131 147 165 182 216 182 183 201 247 274 287 297 303 286 300 318 331 328 340 341 340 337 334 332 333 334 331 327 323 321 319 318
196 181 172 183 182 156 141 129 126 144 137 143 160 171 193 235 196 188 192 199 281 293 277 274 284 270 300 311 318 333 329 331 331 330 327 328 327 326 325 322 321 319 317
186 176 180 196 185 165 161 148 151 170 158 170 191 199 217 244 221 209 205 197 204 258 272 257 270 280 284 284 308 311 303 313 323 325 323 323 323 321 319 316 316 315 311
187 181 190 200 187 177 173 166 172 180 173 207 206 207 230 240 231 214 213 217 214 227 259 258 251 277 290 300 307 306 297 312 317 319 320 319 316 314 313 311 310 309 307
191 190 200 196 192 191 186 180 192 188 197 224 228 222 239 235 231 226 213 217 224 221 252 271 260 267 273 285 299 299 288 286 290 304 310 312 313 311 309 308 307 306 306
201 198 198 192 197 198 194 196 206 208 211 225 233 230 244 239 237 231 220 224 228 222 236 264 274 264 256 265 278 286 294 290 278 293 298 303 309 308 306 303 302 303 301
200 198 191 195 201 203 205 210 211 218 223 230 232 232 239 232 241 238 230 233 238 239 232 245 263 262 260 266 283 287 284 283 285 289 292 296 300 300 300 297 299 298 295
196 204 205 207 208 209 212 215 214 223 232 238 235 232 234 229 233 234 236 234 234 240 239 243 254 261 259 257 256 278 291 283 287 293 290 294 294 297 297 295 297 294 288
207 205 205 215 215 214 216 214 217 224 233 243 245 240 238 239 239 239 237 229 223 233 239 248 254 263 258 255 252 252 274 291 285 272 288 289 290 287 286 288 290 286 283
212 205 210 215 223 232 237 239 235 225 230 235 245 249 247 249 252 255 254 248 238 232 235 239 253 253 257 250 251 253 267 287 288 268 280 286 270 274 273 268 280 284 281
213 214 221 221 231 240 246 251 249 239 230 234 237 244 253 248 252 245 255 257 255 254 249 242 245 249 251 243 240 253 252 258 262 260 275 279 267 271 269 275 282 282 281
218 226 228 229 237 246 248 252 255 245 238 238 237 236 243 250 244 244 242 245 246 249 250 244 238 244 243 237 228 238 249 264 270 260 231 265 268 269 277 273 278 278 282
229 232 232 230 236 249 249 251 253 238 243 248 246 239 240 246 254 258 252 248 254 257 261 254 251 254 255 258 253 238 242 263 277 266 217 244 268 283 280 271 276 282 284
232 233 240 237 235 245 252 254 252 234 244 254 254 249 249 252 257 259 247 241 251 251 239 251 255 255 253 252 254 238 225 246 267 269 217 222 258 291 294 274 270 283 285